Wind_Speed
28 27 26 25 25 25 25 24 24 25 25 26 26 26 26 26 26 26 26 26 26 26 25 25 25 25 26 26 26 27 27 28 28 29 29 30 30 30 31 31 31 32 32 32 33 33 34 34 35 35 35 35 35 35 35 35 36 37 37 38 38 39 39 40 40 41 41 42 42 43 43 44 44 44 45 45 46 46 46 46 47 47 47 47 47 47
28 27 26 25 25 25 25 25 24 25 25 25 26 26 27 27 28 27 27 27 26 26 25 25 25 25 25 26 26 27 27 28 29 29 30 30 30 31 31 31 31 32 32 33 33 34 34 35 35 35 35 35 35 35 36 36 37 37 38 39 39 40 41 41 42 42 43 43 44 44 44 45 45 45 46 46 46 46 47 47 47 47 47 47 47 47
28 27 26 26 25 25 25 25 25 25 24 24 25 25 26 27 27 27 27 26 25 25 24 24 24 24 25 25 26 27 27 28 29 29 30 30 31 31 31 32 32 32 33 33 34 34 35 35 35 35 36 36 36 36 37 37 38 39 40 40 41 42 42 43 43 43 44 44 44 44 44 45 45 45 45 45 46 46 46 46 46 46 46 46 46 46
29 28 27 26 26 25 25 24 24 24 24 23 23 24 25 25 26 26 25 24 24 23 23 23 23 23 24 25 26 26 27 28 28 29 29 30 31 31 32 32 33 33 34 34 34 35 35 35 36 36 36 36 37 37 38 39 40 40 41 42 42 43 43 43 43 43 43 43 43 43 43 44 44 44 44 44 44 44 44 44 44 44 44 44 44 44
30 29 27 26 25 25 24 24 23 23 22 22 22 23 24 24 24 24 24 23 22 22 22 22 22 22 23 24 25 26 26 27 28 28 29 30 31 32 32 33 33 34 34 35 35 35 35 36 36 36 37 37 38 39 40 40 41 42 42 42 43 43 42 42 42 42 41 41 41 41 41 41 41 41 42 42 42 42 42 42 42 41 41 41 41 41
30 29 27 26 25 24 23 23 22 21 21 21 21 21 22 22 23 22 22 22 21 21 21 21 22 22 23 23 24 25 26 27 28 29 30 31 32 32 33 33 34 34 34 35 35 35 36 36 37 37 38 39 40 40 41 41 41 42 42 41 41 41 40 40 39 39 38 38 38 38 38 38 38 38 38 38 38 38 38 38 38 38 38 37 37 37
29 28 26 25 23 22 21 21 20 20 19 20 20 20 20 21 21 20 20 20 20 21 21 21 22 22 23 24 25 25 27 28 29 30 31 32 32 33 33 34 34 35 35 35 36 36 37 38 38 39 40 40 40 41 40 40 40 40 39 38 38 37 36 36 35 35 35 35 35 35 35 35 35 35 35 34 34 34 34 34 34 33 33 33 33 33
27 26 25 23 22 20 19 18 18 18 18 18 19 19 19 19 19 19 20 20 20 21 22 22 23 24 24 25 26 27 28 29 30 31 32 32 33 33 34 34 35 36 36 37 37 38 38 39 39 40 40 40 39 39 38 38 37 36 35 34 33 33 32 32 31 31 31 31 31 30 30 30 30 30 30 30 30 30 30 30 30 30 30 30 30 30
25 24 23 22 20 18 17 17 17 17 17 17 18 18 18 18 19 19 20 21 21 22 23 24 25 26 27 27 28 29 30 31 32 32 33 33 33 34 35 35 36 37 37 38 38 39 39 39 39 39 38 38 37 36 35 34 33 32 31 30 29 28 28 27 27 27 26 26 26 26 26 26 26 26 26 26 26 26 27 27 27 27 28 28 28 29
25 23 22 21 20 19 17 17 18 18 17 17 18 18 19 19 20 20 21 22 23 24 25 26 27 28 29 29 30 30 31 32 33 33 33 34 34 35 36 36 37 38 38 38 39 38 38 38 37 36 35 34 33 32 30 29 28 27 26 25 24 24 23 23 23 23 23 23 23 23 23 23 23 23 24 24 24 25 25 25 26 26 27 27 27 28
25 24 23 22 21 20 19 19 19 19 19 19 19 19 20 20 21 22 23 24 25 26 27 27 28 29 30 30 31 32 32 33 34 34 35 35 36 36 37 37 38 38 38 38 37 37 36 35 33 32 31 29 28 27 26 25 24 23 22 21 20 20 20 20 20 20 20 20 21 21 21 22 22 22 23 23 23 24 24 25 25 26 26 26 27 27
23 23 22 22 21 20 20 20 19 19 19 19 20 20 21 22 22 23 24 25 26 27 28 29 29 30 30 31 32 33 34 34 35 35 36 37 37 38 38 37 37 37 36 35 34 33 32 31 29 28 26 25 24 23 22 21 20 19 18 18 18 18 18 18 18 19 19 20 20 21 21 21 22 22 22 23 23 23 24 24 24 25 25 26 26 26
21 20 20 20 20 20 20 20 20 20 20 21 21 22 23 23 24 24 25 26 27 28 29 30 30 31 32 33 33 34 35 36 36 37 37 38 38 38 37 36 35 34 33 32 31 30 28 26 25 24 22 21 21 20 19 18 17 17 16 16 17 17 17 18 18 19 20 20 20 21 21 21 22 22 22 22 22 23 23 23 23 24 24 24 25 25
19 19 19 19 20 20 21 21 22 22 22 23 23 23 24 25 25 26 27 27 28 29 30 31 32 33 34 34 35 36 37 37 37 37 37 37 38 37 36 34 32 31 29 28 27 26 24 22 21 20 19 18 18 17 17 16 16 16 16 16 17 18 18 19 19 20 20 20 21 21 21 21 22 22 22 22 22 22 23 23 23 23 23 24 24 24
19 20 20 21 22 22 23 23 24 24 24 25 25 25 26 26 27 28 28 29 30 31 32 32 33 34 35 36 37 38 38 38 37 36 36 36 36 35 33 31 29 27 26 25 23 22 20 19 18 17 17 17 16 16 16 16 16 16 17 17 18 18 19 20 20 20 21 21 21 22 22 22 22 23 23 23 23 23 23 23 23 23 23 23 24 24
22 22 23 24 24 25 25 25 26 26 27 27 27 27 28 28 29 30 30 31 32 33 33 34 34 35 36 37 38 38 38 37 36 34 33 33 33 32 29 27 25 24 23 22 20 19 18 17 16 16 16 16 16 16 16 16 17 17 18 18 19 20 20 21 21 21 22 22 22 23 23 23 23 23 23 23 23 23 23 23 23 22 23 23 23 24
25 25 26 26 27 27 28 28 28 29 29 29 30 30 31 31 32 32 33 33 34 35 35 35 35 35 36 37 38 39 38 36 33 31 30 30 30 28 25 23 21 21 20 19 18 17 16 15 15 15 15 16 16 16 17 17 18 18 19 19 20 21 21 22 22 23 23 23 24 24 24 24 24 24 24 24 24 23 23 23 23 23 23 23 23 24
27 28 28 28 29 30 30 31 31 31 32 32 32 33 33 34 34 34 34 35 35 35 35 35 35 35 35 35 36 37 37 34 30 27 26 26 26 24 21 20 19 18 18 17 16 15 15 15 15 15 16 16 16 17 17 18 18 19 20 20 21 22 22 23 23 24 24 24 25 25 25 25 25 25 25 25 25 24 24 24 23 23 23 23 24 24
29 29 30 30 31 32 32 32 33 33 33 34 34 34 35 35 35 35 35 35 35 35 35 34 34 34 33 33 34 34 33 30 26 24 22 23 23 21 18 17 17 17 16 16 15 15 14 15 15 15 16 16 17 18 18 19 19 20 20 21 22 22 23 23 24 24 25 25 25 26 26 26 26 26 26 26 26 26 25 25 25 24 24 24 24 24
30 30 31 31 32 32 33 33 33 33 34 34 34 35 35 35 35 35 35 34 34 34 33 32 32 31 31 30 30 30 29 25 22 21 20 20 20 18 16 15 15 16 16 15 15 14 14 15 15 16 16 17 18 18 19 19 20 20 21 22 22 23 23 24 24 25 25 25 26 26 26 27 27 27 27 27 27 27 27 26 26 25 25 25 25 25
30 30 30 31 31 31 32 32 32 33 33 33 33 33 34 34 34 33 33 33 32 31 31 30 29 28 28 27 27 27 25 22 20 18 18 18 18 17 15 15 15 15 15 15 15 14 14 15 15 16 16 17 18 18 19 19 20 21 21 22 23 23 24 24 24 25 25 26 26 27 27 27 28 28 28 28 28 28 28 28 27 27 26 26 26 26
29 29 29 29 29 30 30 30 31 31 31 31 31 32 32 32 32 31 31 30 30 29 28 28 27 26 25 25 25 24 21 19 18 17 16 17 17 17 15 15 15 15 15 15 15 14 14 15 15 16 17 18 18 19 19 19 20 21 21 22 23 23 24 24 25 25 26 26 27 27 27 28 28 29 29 29 29 29 29 29 28 28 27 27 27 27
27 27 28 28 28 28 28 29 29 29 29 30 30 30 30 30 29 29 28 28 27 27 26 26 25 24 23 23 23 21 19 17 16 16 15 16 17 17 15 15 15 15 15 15 14 14 14 15 15 16 17 18 18 18 19 19 20 21 22 22 23 24 24 24 25 26 26 27 27 28 28 29 29 29 30 30 30 30 30 30 30 29 29 28 28 28
27 27 27 27 27 28 28 28 28 28 29 29 29 29 28 28 27 26 26 26 25 25 25 24 23 23 23 22 22 20 18 16 16 15 15 16 17 17 16 15 14 14 14 14 14 14 14 15 16 17 17 18 18 18 19 19 20 21 22 22 23 24 24 25 25 26 26 27 28 28 29 29 30 30 31 31 31 31 31 31 31 31 30 30 29 29
27 27 28 28 28 28 28 28 28 28 28 28 28 28 27 27 26 25 25 24 24 24 23 22 22 22 22 21 20 19 18 16 16 15 15 16 16 16 16 15 14 14 14 14 14 14 15 15 16 17 17 18 18 18 19 19 20 21 22 22 23 24 24 25 26 26 27 27 28 29 29 30 30 31 31 32 32 32 32 32 32 32 31 31 30 29
28 28 28 28 28 28 28 29 29 29 29 28 28 27 27 26 25 25 24 24 24 24 22 21 21 21 21 20 19 19 18 17 16 16 16 15 15 16 16 15 15 14 14 14 14 15 15 16 16 17 17 18 18 18 19 19 20 21 22 22 23 24 25 25 26 27 27 28 29 29 30 30 31 31 32 32 32 33 33 33 33 33 32 32 31 30
28 28 28 28 28 28 29 29 29 29 29 29 28 27 26 25 25 24 24 24 24 23 21 20 20 20 20 20 19 19 19 18 17 17 16 15 15 15 16 15 15 14 14 14 15 15 15 16 16 17 17 17 18 18 19 19 20 21 22 23 23 24 25 26 27 27 28 28 29 29 30 31 31 32 32 33 33 33 33 33 33 33 33 32 32 31
27 28 28 28 28 28 28 28 29 29 29 29 28 27 26 25 24 23 24 24 24 22 21 20 19 20 20 19 19 19 19 19 18 17 16 15 15 15 15 16 15 15 15 15 15 15 15 16 16 17 17 17 17 18 18 19 20 21 22 23 24 25 25 26 27 28 28 29 30 30 31 31 32 32 33 33 33 34 34 34 34 34 33 33 32 31
27 27 27 28 28 28 28 28 29 29 29 29 28 27 26 25 24 23 23 24 23 21 20 20 19 19 19 19 19 19 19 20 19 18 17 16 15 15 15 16 16 15 15 15 15 14 15 15 16 16 16 17 17 17 18 19 20 21 22 23 24 25 26 27 27 28 29 29 30 31 31 32 33 33 33 34 34 34 34 34 34 34 34 33 32 31
27 27 27 28 28 28 28 29 29 29 29 29 29 28 26 25 24 23 23 23 22 21 20 20 19 19 19 18 18 18 19 20 20 20 18 17 16 16 16 16 16 16 15 15 14 14 14 15 16 16 16 16 17 17 18 19 20 21 22 23 24 25 26 27 28 28 29 30 31 31 32 33 33 34 34 34 34 34 34 34 34 34 34 33 32 31
26 27 27 27 28 28 28 29 29 30 30 30 29 28 27 25 24 23 23 23 22 20 20 19 19 19 18 18 17 18 19 21 21 20 19 18 17 17 16 16 16 16 16 15 15 14 13 14 15 16 16 16 16 17 18 19 20 21 23 24 24 25 26 27 28 29 30 31 31 32 33 33 34 34 35 35 35 35 35 34 34 34 33 33 32 31
26 26 27 27 27 28 28 28 29 29 30 30 29 29 27 26 25 24 23 22 21 20 19 19 19 18 18 18 17 18 19 21 21 21 20 19 19 17 17 16 16 16 16 16 16 15 14 14 14 15 16 16 17 17 18 19 21 22 23 24 25 26 27 28 29 29 30 31 31 32 33 34 34 35 35 35 35 35 35 34 34 34 33 33 32 30
26 26 27 27 27 27 28 28 28 29 29 29 29 29 28 26 25 24 23 22 21 20 19 19 18 18 18 18 18 19 20 21 22 22 21 20 19 18 17 17 17 17 17 17 17 16 15 14 15 15 16 16 17 18 19 20 22 23 24 25 25 26 27 28 29 30 30 31 32 32 33 34 34 35 35 35 35 35 35 34 34 34 33 32 31 30
26 26 27 27 27 27 28 28 28 28 29 29 29 28 27 26 25 23 22 21 21 20 19 19 19 19 19 19 19 19 20 21 22 22 21 21 20 19 18 18 18 18 18 18 18 18 17 16 16 16 16 17 18 19 20 22 23 24 25 25 26 27 27 28 29 30 30 31 31 32 33 34 34 34 34 35 34 34 34 34 34 33 33 32 31 30
26 27 27 27 27 27 28 28 28 28 28 28 28 28 27 26 25 23 22 21 20 20 19 19 19 19 19 19 19 19 20 21 22 22 22 21 21 20 19 19 19 19 19 19 19 19 19 19 18 18 18 18 18 19 21 22 23 24 25 25 26 27 27 28 29 30 30 31 31 32 33 33 34 34 34 34 34 34 33 33 33 33 32 32 31 30
26 26 27 27 27 27 27 28 28 28 28 28 28 27 26 25 24 23 22 21 21 20 20 20 20 20 20 20 20 20 21 22 22 22 22 22 22 21 21 20 20 20 20 20 20 20 21 21 21 21 21 20 20 20 21 22 23 24 25 25 26 26 27 28 29 30 30 31 31 32 33 33 33 33 33 33 33 33 33 32 32 32 31 31 31 30
26 26 26 27 27 27 27 27 27 27 27 27 27 27 26 25 24 23 22 21 21 21 21 21 20 20 20 21 21 21 21 22 22 23 23 23 23 22 22 21 21 21 21 21 22 22 22 23 23 23 23 23 23 22 22 23 23 23 24 24 25 26 27 28 29 30 30 31 31 32 32 33 33 33 33 32 32 32 32 31 31 31 31 30 30 30
26 26 26 26 27 27 27 27 27 27 27 27 26 26 25 24 24 23 22 22 22 21 21 21 21 21 21 21 21 21 22 22 22 23 23 23 23 23 23 22 22 22 22 23 23 24 24 25 25 25 25 25 25 25 24 24 23 23 23 24 25 26 27 28 29 30 30 30 31 31 32 32 32 32 32 32 31 31 30 30 30 30 30 30 30 29
26 26 26 26 26 26 26 26 26 26 26 26 26 25 25 24 24 23 23 22 22 22 22 22 21 21 21 21 21 22 22 22 23 23 24 24 24 24 24 23 23 23 24 24 25 26 26 27 27 27 27 27 27 26 26 25 24 24 24 24 25 25 26 27 28 29 29 30 30 31 31 32 32 32 31 31 30 30 29 29 29 29 29 29 29 29
26 26 26 26 26 26 26 26 26 26 26 25 25 25 25 24 24 23 23 23 22 22 22 22 22 22 22 22 22 22 22 23 23 24 24 24 25 24 24 24 25 25 25 26 26 27 28 28 29 29 29 29 28 28 27 26 26 26 26 26 26 26 26 27 27 28 29 29 30 30 31 31 31 31 30 30 30 29 29 29 28 28 29 29 29 29
26 26 26 26 26 26 26 25 25 25 25 25 25 25 25 24 24 23 23 23 23 23 23 22 22 22 22 22 22 23 23 24 24 24 25 25 25 25 25 25 26 26 26 27 28 28 29 29 30 30 30 30 30 29 28 27 26 27 27 28 28 27 27 27 27 27 28 28 29 29 30 30 30 30 30 29 29 29 28 28 28 28 28 28 28 28
26 26 26 26 26 26 25 25 25 25 25 25 24 24 24 24 24 24 23 23 23 23 23 23 22 22 22 22 23 23 24 24 25 25 26 26 26 26 26 27 27 27 28 28 29 29 30 30 30 30 30 31 30 30 29 28 28 28 28 29 29 29 28 27 27 27 27 28 28 29 29 30 30 29 29 29 28 28 28 28 28 28 28 28 28 28
26 26 26 26 26 25 25 25 25 25 24 24 24 24 24 24 24 24 23 23 23 23 23 23 23 22 22 22 23 23 24 25 25 26 26 26 27 27 27 28 28 28 29 29 30 30 30 31 31 31 31 31 31 31 30 29 29 29 29 30 30 30 28 27 27 27 27 27 28 28 29 30 30 29 29 29 28 28 28 28 28 28 28 28 28 28
26 26 26 26 25 25 25 25 25 24 24 24 24 24 24 24 24 24 24 24 24 24 23 23 23 23 23 23 23 24 24 25 25 26 26 27 27 28 28 28 29 29 30 30 30 31 31 31 31 31 31 32 32 31 31 30 30 30 30 30 30 30 29 28 27 27 27 28 28 29 29 30 30 30 29 29 28 28 28 28 28 28 28 28 28 28
26 26 26 26 25 25 25 25 24 24 24 24 24 24 24 24 24 24 24 24 24 24 23 23 23 23 23 23 23 24 24 25 25 26 27 27 28 28 29 29 30 30 31 31 31 31 31 31 31 32 32 32 32 32 32 32 31 31 31 31 30 30 29 29 28 28 28 28 28 29 30 30 30 30 30 29 29 29 28 28 28 27 27 27 28 28
26 26 26 26 25 25 25 25 25 24 24 24 24 25 25 25 24 24 24 24 24 24 24 24 23 23 23 23 24 24 24 24 25 26 27 27 28 28 29 29 30 30 31 31 32 32 32 32 32 32 32 33 33 33 32 32 32 32 31 31 31 30 29 29 29 29 29 29 29 30 30 31 31 31 30 30 29 29 29 28 28 27 27 27 27 27
26 26 26 25 25 25 25 25 25 24 24 24 25 25 25 25 25 25 24 24 24 24 24 24 24 24 24 24 24 24 24 24 25 26 26 27 28 28 29 30 30 31 31 32 32 32 32 33 33 33 33 33 33 33 33 33 33 33 32 32 31 30 30 29 30 30 30 30 30 31 31 31 32 31 31 31 30 29 29 28 28 27 27 27 27 27
26 25 25 25 25 25 25 25 25 25 25 25 25 25 25 25 25 25 25 24 24 24 24 24 24 24 24 24 25 25 25 25 25 25 26 27 28 28 29 30 30 31 31 32 32 32 33 33 33 33 34 34 34 33 33 33 33 33 33 32 31 31 30 30 30 30 31 31 31 31 32 32 32 32 32 31 31 30 29 28 27 27 27 27 27 27
26 25 25 25 25 25 25 25 25 25 25 25 25 25 25 25 25 25 25 25 25 25 25 25 25 25 25 25 25 25 25 25 25 26 26 27 27 28 29 29 30 31 31 32 32 33 33 33 33 33 34 34 34 34 33 33 33 33 32 32 32 31 31 31 31 31 31 32 32 32 32 32 32 32 33 32 31 30 29 28 27 27 26 27 27 27
25 25 25 25 25 25 25 25 25 25 25 24 24 24 25 25 25 25 25 25 25 25 25 25 25 25 25 25 26 26 26 26 26 27 27 27 28 28 29 29 30 31 31 32 32 33 33 33 33 33 33 34 34 34 33 33 32 32 32 32 32 32 32 32 32 32 32 32 32 32 32 32 33 33 33 33 32 31 30 28 27 26 26 26 26 27
25 25 25 25 24 24 24 24 24 24 24 24 24 24 24 24 25 25 25 25 25 25 25 26 26 26 26 26 26 26 26 27 27 27 28 28 28 28 29 30 30 31 31 32 33 33 33 33 33 33 33 33 34 34 33 33 32 32 31 31 32 32 32 32 32 32 33 33 33 33 32 33 33 33 33 33 32 31 30 29 27 26 26 26 26 27
Wind_Direction
298 299 299 301 301 300 300 299 299 299 298 295 289 281 276 272 271 270 269 267 266 265 264 263 263 262 261 262 262 263 264 265 265 265 265 265 265 265 265 266 267 268 269 271 272 274 275 276 277 277 277 277 278 278 279 279 279 279 279 279 279 278 278 278 278 278 278 278 278 278 278 278 278 278 278 278 277 277 277 277 276 276 276 276 276 276
296 296 296 297 297 297 296 295 294 293 293 291 288 283 277 272 269 266 264 262 261 260 259 259 259 259 259 260 262 263 264 265 266 266 266 266 267 268 269 270 271 272 273 274 275 276 277 278 278 278 279 279 280 280 280 280 280 280 279 279 279 278 278 278 278 278 278 278 279 279 279 279 279 279 278 278 278 278 277 277 277 276 276 276 276 275
297 295 294 293 293 293 292 291 290 289 288 286 284 280 275 271 267 264 261 259 258 257 256 255 255 256 257 259 261 263 264 265 265 266 266 267 269 270 271 273 274 275 276 277 277 278 278 279 279 280 281 281 282 281 281 280 280 279 279 279 279 279 279 279 279 279 279 280 280 280 280 280 280 280 279 279 278 278 278 277 277 276 276 276 276 275
299 297 295 293 292 290 288 286 285 284 283 282 279 276 272 267 264 261 259 257 256 256 256 256 256 256 257 259 261 262 263 264 265 267 268 270 271 273 275 276 277 278 278 279 279 279 280 281 281 282 282 282 282 281 280 280 280 279 279 279 279 279 279 280 280 281 281 281 282 282 282 281 281 280 280 279 279 278 278 277 277 277 276 276 276 275
301 299 296 293 290 288 286 284 282 281 280 278 275 271 268 264 261 259 257 256 256 256 257 258 258 258 258 260 261 263 265 267 268 270 272 273 275 277 278 279 280 280 280 281 281 282 282 283 283 283 282 282 281 281 280 280 280 280 280 280 280 281 281 281 282 282 283 283 283 283 282 282 281 280 280 279 279 278 278 277 277 277 277 276 276 276
300 299 296 293 289 286 284 282 281 279 277 275 272 268 264 262 259 258 257 257 258 259 259 261 262 263 263 264 266 268 270 272 274 275 276 277 278 280 280 281 281 282 282 282 283 283 283 283 283 283 282 282 281 281 281 281 281 281 281 281 282 282 282 283 283 283 283 283 282 282 281 281 280 280 279 279 278 278 278 278 278 278 278 278 278 277
299 298 295 292 288 284 281 279 277 275 272 269 267 264 262 260 259 259 260 261 262 264 265 266 268 269 271 272 273 275 276 277 277 278 278 279 280 281 282 282 282 282 282 283 283 283 283 283 283 282 282 282 282 282 282 282 282 282 282 282 282 283 283 283 283 283 282 282 281 281 280 280 279 279 279 279 279 279 279 279 279 279 280 280 280 279
297 296 293 290 286 282 278 274 272 270 267 264 262 261 261 262 263 264 265 267 269 271 273 274 275 277 277 278 279 279 279 279 279 279 280 280 281 281 282 282 282 282 283 283 283 283 283 283 283 283 282 282 282 282 282 282 282 282 282 282 282 283 283 282 282 281 281 280 280 279 279 279 279 279 279 279 279 280 280 280 281 281 281 281 281 281
295 293 291 288 284 279 274 271 270 269 267 266 265 264 266 268 271 273 274 276 276 278 279 280 280 280 281 281 280 280 280 280 280 280 281 281 281 282 282 282 282 283 283 283 283 283 283 283 282 282 282 282 282 282 281 281 281 281 281 282 282 281 281 281 280 280 280 279 279 279 278 279 279 279 279 280 280 281 281 281 281 282 282 281 281 281
294 291 289 288 285 282 278 275 275 276 274 273 274 274 275 277 279 280 281 282 281 281 281 281 281 281 281 281 281 281 281 281 281 281 281 281 282 282 282 282 283 283 283 283 283 283 282 282 282 282 282 281 281 280 280 280 280 280 280 280 280 280 280 279 279 279 279 278 278 278 278 279 279 279 280 280 280 280 280 280 281 280 280 280 280 279
292 291 290 289 287 286 284 283 282 283 282 282 282 282 283 283 283 283 284 283 283 282 282 282 282 282 282 282 282 282 282 282 281 282 282 282 282 282 282 282 283 283 283 283 282 282 281 281 281 281 280 279 279 278 278 278 278 278 279 279 279 279 278 278 278 278 278 278 278 278 278 278 278 278 278 278 278 279 279 279 279 278 278 278 278 277
291 291 290 290 289 288 288 287 287 287 286 285 285 285 284 284 284 283 283 283 283 283 283 283 283 282 282 282 282 282 282 282 282 282 283 283 283 283 283 283 283 283 282 282 281 280 280 279 279 278 277 277 276 276 276 276 276 276 277 277 277 277 276 276 276 276 276 276 276 276 276 277 277 277 277 278 278 278 278 278 278 277 277 277 276 276
291 290 290 290 289 289 289 288 287 286 285 284 284 284 283 284 283 283 282 282 282 283 283 283 284 284 283 283 283 282 282 282 282 283 284 284 284 284 283 283 283 282 281 280 279 278 277 277 276 275 274 273 273 273 273 273 274 274 274 275 275 275 275 274 275 275 275 275 275 276 276 277 278 278 279 279 279 279 279 279 279 278 278 277 276 275
292 291 291 290 289 288 287 287 286 285 284 283 283 283 283 284 284 284 283 283 283 283 284 284 284 284 284 284 284 283 283 283 283 284 284 284 284 284 283 282 281 280 278 277 275 274 274 273 271 270 269 269 269 269 270 271 271 272 273 273 273 273 274 274 274 275 275 276 277 278 279 280 280 281 282 282 282 282 282 281 281 280 279 278 277 276
294 292 291 290 289 288 287 287 286 286 286 286 286 286 286 286 286 286 285 285 285 285 285 285 285 285 285 285 284 284 283 283 283 284 284 284 283 282 281 280 278 276 274 272 271 269 268 267 265 265 265 265 266 267 268 269 271 272 273 273 274 274 275 275 276 277 278 279 281 282 283 284 284 285 285 285 285 284 284 283 282 281 280 279 278 277
296 294 293 292 291 291 290 290 290 290 290 290 290 290 289 289 288 288 287 287 286 286 286 286 286 286 286 285 284 283 282 282 283 283 282 281 280 278 277 276 273 271 268 266 265 263 262 261 260 260 262 263 265 267 269 271 272 274 275 276 276 277 278 279 280 282 283 284 286 287 287 288 288 288 288 287 287 286 285 284 283 282 281 280 278 277
297 296 295 294 294 294 294 293 293 293 293 293 293 292 291 290 290 289 288 288 287 287 287 286 286 285 285 285 284 283 282 281 282 281 279 277 275 274 272 270 267 264 262 260 259 257 256 256 258 260 262 265 267 270 272 274 275 277 278 279 281 282 283 284 286 287 288 290 290 291 291 291 290 290 289 289 288 287 286 285 284 282 281 280 279 278
296 295 295 294 294 294 294 294 294 294 294 293 292 292 291 290 290 289 288 288 287 287 286 286 285 284 283 281 281 281 281 281 280 278 274 271 269 268 266 262 259 257 256 255 254 254 255 257 260 263 266 268 271 273 275 276 278 280 282 283 285 286 288 289 290 292 292 293 293 293 293 292 292 291 291 290 289 288 287 286 285 284 283 281 280 279
294 293 293 293 293 293 293 293 292 292 292 291 291 290 290 289 289 288 288 287 286 286 285 284 283 282 280 278 277 278 278 278 277 273 268 265 264 262 259 255 252 251 252 252 253 255 258 260 263 266 268 271 273 275 277 280 282 284 286 287 288 290 291 292 293 294 294 294 294 294 294 293 293 293 292 292 291 290 290 289 288 286 285 284 283 282
292 291 291 291 291 291 291 291 290 290 290 289 289 289 288 288 287 287 286 286 286 285 284 283 281 280 278 276 275 275 275 275 272 267 262 259 258 257 253 249 248 249 251 253 256 258 260 263 265 268 270 272 275 277 280 283 285 287 288 290 291 292 293 294 294 294 295 295 294 294 294 294 294 294 294 294 293 293 292 291 291 289 288 287 286 285
291 290 290 290 290 290 290 290 289 289 289 288 288 288 288 287 287 287 287 286 286 285 283 282 280 278 277 275 273 272 272 271 267 262 256 254 254 253 250 247 248 250 253 256 258 260 262 264 266 269 272 274 277 280 283 285 287 289 290 291 292 292 293 294 294 295 295 295 295 295 296 296 296 296 296 295 295 295 294 294 293 292 291 290 289 288
292 292 292 292 291 291 290 290 290 289 289 288 288 288 288 287 288 288 288 287 286 284 283 281 280 278 276 274 272 270 269 266 262 256 252 252 252 251 250 248 249 252 255 258 261 262 263 266 268 271 274 277 280 282 285 287 288 290 290 291 292 292 293 294 295 295 296 296 296 297 297 297 297 297 297 297 296 296 296 295 295 294 293 292 290 289
296 296 296 296 295 294 294 293 292 292 291 290 290 289 289 289 288 288 287 286 285 283 282 280 279 277 274 271 269 267 264 260 255 252 249 249 251 253 252 252 253 255 257 260 263 264 266 268 271 274 277 279 282 284 286 287 288 289 290 291 292 293 293 294 295 296 296 297 297 298 298 298 298 298 298 298 297 297 297 297 296 295 294 293 292 290
303 303 302 301 300 299 298 298 297 296 295 294 293 293 293 292 291 290 288 286 284 282 280 279 277 274 272 269 267 264 260 254 250 248 247 248 251 254 256 255 256 257 259 262 266 268 270 272 274 277 279 281 283 284 285 286 287 288 289 290 292 293 294 295 295 296 297 297 298 298 298 298 298 298 298 298 298 298 298 298 297 296 295 294 292 291
309 308 307 306 305 304 303 302 301 299 298 297 297 296 296 295 294 292 290 287 284 281 279 277 274 271 268 266 264 261 258 251 247 245 246 247 251 255 257 258 259 260 261 265 268 271 273 274 276 277 279 280 281 283 284 285 286 288 289 291 292 293 294 295 295 296 297 297 298 298 298 298 298 298 298 298 298 298 298 298 297 296 295 294 293 292
311 311 310 309 308 306 305 304 303 302 301 299 299 298 297 296 294 292 290 286 282 279 277 275 272 268 266 263 260 258 255 251 247 245 246 247 249 252 256 259 260 261 262 265 267 269 271 272 274 275 277 278 280 281 283 285 286 288 289 290 292 293 294 295 295 296 297 297 297 298 298 298 298 298 297 297 297 297 297 297 297 296 295 294 293 292
312 311 310 309 307 306 305 304 303 302 301 300 300 299 297 296 294 291 287 283 280 279 277 273 268 264 262 259 257 255 255 252 249 248 247 247 247 249 253 256 258 259 260 262 264 266 267 268 270 272 274 277 279 281 283 285 286 288 289 290 291 293 294 295 295 296 296 297 297 297 297 296 296 296 296 296 296 296 296 296 296 296 295 294 294 293
311 310 309 308 307 306 305 304 303 302 301 300 300 299 298 295 293 289 285 282 280 278 274 269 263 258 257 256 255 255 256 255 254 252 251 250 248 248 251 254 256 257 257 258 260 262 263 265 267 270 272 275 278 280 282 283 285 287 288 290 291 292 294 294 295 295 296 296 295 295 295 295 295 294 295 295 295 295 295 295 295 295 295 294 294 293
311 310 309 308 307 306 305 304 303 302 301 301 300 299 298 295 292 287 283 281 279 275 271 265 259 255 254 253 254 255 257 258 259 258 257 255 253 252 253 255 256 257 257 257 257 258 260 263 265 268 270 273 275 278 280 282 283 285 287 288 290 291 292 293 293 294 294 294 294 294 294 294 294 294 294 294 294 295 295 295 295 295 294 294 293 292
312 311 310 308 308 306 305 304 303 302 302 301 300 299 298 295 291 287 283 279 275 271 267 262 257 254 252 252 253 256 259 260 261 262 262 260 258 257 257 257 258 259 259 258 257 256 257 261 264 266 268 270 272 274 277 279 281 283 285 286 288 289 290 291 291 291 292 292 292 292 293 293 293 293 293 293 294 294 294 294 294 294 294 293 292 292
311 310 309 308 307 306 305 304 303 303 302 301 301 299 298 295 291 286 282 278 273 268 264 259 256 253 252 252 254 256 258 261 262 264 264 263 262 261 261 261 261 261 261 261 259 257 255 257 262 265 267 268 270 272 274 277 279 280 282 283 285 286 287 288 289 289 290 290 291 291 292 292 292 292 292 293 293 293 293 293 293 293 293 293 292 291
311 310 309 308 307 306 305 304 303 302 301 301 300 299 297 294 290 285 280 276 272 268 263 259 256 254 254 254 254 255 257 260 262 264 265 265 264 264 264 263 263 264 263 263 263 260 255 252 255 260 264 266 268 270 273 275 276 278 279 281 282 283 285 286 287 287 288 289 289 290 290 290 291 291 291 291 292 292 292 293 293 293 293 293 292 291
312 310 309 308 307 306 305 304 303 302 301 300 299 297 296 293 289 284 279 275 271 267 263 259 257 257 257 257 257 257 258 260 262 264 265 266 266 267 266 265 265 265 265 264 264 263 261 255 252 253 257 261 265 268 270 272 274 276 278 279 281 282 283 284 285 286 287 287 288 288 289 289 289 289 290 290 291 291 292 293 293 294 294 293 293 292
312 311 309 308 307 306 305 303 302 301 300 299 298 296 294 292 288 284 278 273 269 266 263 260 259 259 259 259 259 259 260 261 263 265 266 267 268 268 267 267 266 266 265 265 265 265 265 263 259 255 254 256 261 265 268 271 273 274 277 279 280 281 282 283 284 285 286 286 287 287 287 287 287 288 289 289 290 291 292 293 294 294 294 294 294 293
312 311 310 309 307 306 305 304 302 301 300 298 297 295 293 291 287 283 278 272 268 265 263 261 260 260 260 260 260 260 261 263 264 266 267 267 268 268 268 267 267 267 267 267 267 268 268 268 267 265 263 261 262 265 268 270 273 274 276 278 280 281 282 283 283 284 285 285 286 286 286 286 287 287 288 289 290 291 292 293 294 295 295 294 294 293
312 311 310 309 307 306 305 304 303 301 300 298 297 295 293 290 287 282 277 272 268 265 263 262 262 261 261 261 261 261 262 263 265 266 267 268 268 268 268 268 268 268 268 269 269 270 271 272 272 272 272 270 269 269 270 272 274 276 277 279 280 281 282 283 284 284 285 285 286 286 286 286 287 287 288 289 290 292 293 294 294 294 294 294 294 293
312 310 309 308 307 306 305 304 303 301 300 298 297 295 293 290 286 281 276 271 268 265 264 264 263 263 263 262 262 262 262 263 265 266 267 267 268 269 269 269 269 270 270 272 273 273 275 276 276 277 277 277 277 275 274 274 275 276 278 280 281 282 283 284 284 285 286 286 286 287 287 287 287 288 288 289 290 291 292 293 293 293 293 293 293 293
312 311 309 308 307 306 305 304 303 301 300 298 296 294 292 288 285 280 276 272 268 267 266 265 265 264 264 264 263 263 263 264 265 266 266 267 268 269 270 271 272 272 273 275 276 278 278 279 280 280 281 281 281 281 280 279 278 278 279 280 281 282 284 284 285 286 287 287 287 287 287 287 287 288 288 289 290 291 292 292 293 293 293 293 293 293
312 311 310 309 308 307 306 304 303 301 300 298 296 293 290 287 283 279 275 272 270 268 267 267 267 266 266 265 265 265 265 265 265 266 266 267 268 270 271 273 274 275 276 278 279 280 281 282 283 284 284 284 284 284 284 284 284 283 282 282 283 284 285 286 286 287 288 288 287 287 287 287 287 287 288 289 289 290 291 291 292 292 293 293 293 293
313 312 310 309 308 307 306 304 303 301 300 298 295 293 290 286 283 279 275 273 271 270 269 269 268 268 268 268 268 268 267 267 267 267 267 268 269 270 272 274 275 277 278 279 281 282 283 284 285 286 286 287 287 286 287 288 288 288 288 287 286 286 286 287 288 288 288 288 287 287 287 287 287 287 288 288 289 290 291 291 291 291 292 292 292 293
313 312 311 310 309 308 306 305 303 301 300 298 295 293 289 286 283 280 277 274 272 271 271 270 270 270 270 270 270 270 270 269 269 269 269 269 270 271 273 275 277 278 279 281 282 284 285 286 287 288 289 289 289 289 290 291 292 292 292 291 290 289 289 289 289 289 288 288 287 287 286 286 286 287 287 288 289 290 290 290 291 291 291 292 292 292
313 312 311 310 309 308 306 305 303 302 300 298 295 292 290 287 284 281 278 276 274 273 272 272 272 272 272 272 272 271 271 271 271 271 271 271 272 274 275 277 279 280 282 283 285 286 287 288 289 290 290 291 291 292 293 294 295 295 295 294 293 292 291 291 291 291 289 289 288 287 287 287 286 287 287 288 289 290 290 291 291 291 292 292 292 293
313 312 311 310 309 308 306 305 303 302 300 298 295 292 290 287 284 281 279 276 275 274 273 273 273 273 273 273 273 273 273 273 273 273 273 274 275 277 278 280 281 283 284 286 287 288 288 289 290 291 292 292 293 294 295 296 297 297 296 296 295 294 294 294 293 292 291 290 290 289 288 288 288 288 288 289 289 290 291 291 291 292 292 293 293 294
313 312 311 310 309 308 307 305 304 302 300 298 296 293 290 287 285 282 279 277 276 275 275 274 274 274 274 274 274 275 275 275 275 275 276 277 278 280 281 282 284 285 286 287 288 289 289 290 291 292 292 293 294 295 297 298 298 297 297 297 296 296 297 296 295 294 293 292 291 291 290 290 289 290 290 290 290 291 291 291 292 292 293 294 294 295
314 313 312 311 310 309 307 306 304 302 300 298 296 293 290 288 285 283 280 278 276 276 275 275 275 275 275 275 275 275 275 276 276 277 278 279 280 281 283 284 285 286 287 288 288 289 290 291 291 292 292 294 295 297 298 299 299 298 298 297 297 297 298 298 297 296 295 294 293 292 292 291 291 291 291 291 291 291 291 291 292 292 293 293 294 294
314 313 312 311 310 308 307 305 304 302 300 298 296 293 291 288 286 283 281 279 277 276 276 275 275 275 275 275 275 275 275 276 277 277 278 279 281 282 283 284 285 286 287 288 288 289 290 291 291 292 293 294 296 298 299 300 300 299 298 298 298 298 298 299 298 297 296 296 295 294 293 293 292 292 292 292 291 291 291 291 291 291 291 291 291 291
313 313 312 311 310 308 307 305 304 302 300 298 296 293 291 289 287 284 282 280 278 277 276 276 276 275 275 275 275 275 275 275 276 277 278 279 281 282 283 284 285 286 287 287 288 289 290 291 292 293 295 296 297 299 299 300 300 299 299 299 299 299 299 299 298 297 296 296 295 294 293 293 293 293 292 292 291 290 290 289 289 289 288 288 288 288
314 313 312 311 310 308 307 306 304 302 300 298 296 294 292 290 288 285 283 281 279 278 277 276 276 275 275 275 275 275 275 275 276 277 278 279 280 282 283 284 285 286 286 287 288 289 290 291 293 294 296 298 298 299 299 299 299 299 299 299 299 299 298 298 297 296 296 295 294 294 293 293 292 292 291 290 290 289 288 287 286 286 286 286 286 287
314 313 312 312 310 309 307 306 304 302 300 298 296 294 292 290 288 286 284 282 280 278 277 276 276 276 276 276 276 276 276 276 276 277 278 279 280 281 282 283 284 285 285 286 287 288 289 290 292 294 296 297 298 298 298 298 297 297 298 298 298 298 297 297 296 296 295 294 294 294 293 293 292 292 291 290 289 288 287 286 285 285 285 286 287 288
315 314 313 312 311 309 308 306 305 303 301 298 296 294 292 291 288 286 284 282 281 279 278 277 276 276 276 276 276 276 276 277 277 278 278 279 280 281 282 282 283 283 284 285 286 287 289 290 292 293 295 296 297 297 296 296 296 296 296 297 297 297 297 297 296 296 295 294 294 294 294 293 293 292 291 290 290 288 287 285 285 285 286 288 289 289
315 314 313 312 311 310 308 306 304 303 300 298 296 294 292 290 288 287 285 283 281 280 278 278 277 277 277 276 276 277 277 277 278 279 280 281 281 282 282 283 283 284 284 285 286 287 288 290 291 293 294 295 296 296 296 296 296 296 297 297 297 297 297 297 297 296 295 295 295 295 294 293 293 292 292 291 291 290 288 286 285 286 288 290 291 291
Height
3045 3044 3044 3043 3042 3042 3041 3041 3040 3040 3040 3039 3039 3039 3039 3039 3039 3039 3039 3039 3040 3040 3040 3041 3041 3040 3040 3040 3040 3040 3040 3040 3040 3040 3040 3040 3040 3040 3040 3040 3040 3040 3040 3040 3040 3039 3039 3039 3039 3038 3038 3038 3038 3037 3037 3037 3036 3036 3036 3036 3035 3035 3035 3034 3034 3034 3033 3033 3032 3032 3031 3031 3031 3030 3030 3030 3030 3030 3030 3029 3029 3029 3029 3029 3029 3029
3043 3043 3042 3041 3041 3040 3039 3039 3039 3038 3038 3038 3038 3038 3037 3037 3037 3037 3037 3037 3038 3038 3038 3038 3038 3038 3038 3038 3038 3038 3038 3038 3038 3038 3038 3038 3038 3038 3038 3038 3037 3037 3037 3037 3036 3036 3036 3035 3035 3035 3035 3034 3034 3034 3034 3033 3033 3033 3032 3032 3032 3031 3031 3030 3030 3029 3029 3028 3028 3028 3027 3027 3027 3027 3026 3026 3026 3026 3026 3025 3025 3025 3025 3025 3025 3025
3041 3040 3040 3039 3039 3038 3038 3037 3037 3036 3036 3036 3036 3036 3036 3036 3036 3035 3035 3035 3036 3036 3036 3036 3035 3035 3035 3035 3035 3035 3035 3035 3035 3035 3035 3035 3035 3035 3035 3035 3035 3034 3034 3034 3033 3033 3033 3032 3032 3032 3031 3031 3031 3030 3030 3030 3029 3029 3029 3029 3028 3028 3027 3026 3026 3025 3024 3024 3024 3023 3023 3023 3023 3023 3022 3022 3022 3022 3021 3021 3021 3021 3020 3020 3020 3020
3039 3038 3037 3037 3037 3036 3036 3035 3034 3034 3034 3034 3034 3034 3034 3034 3034 3034 3034 3034 3034 3034 3034 3033 3033 3033 3032 3032 3032 3033 3033 3033 3033 3033 3033 3032 3032 3032 3032 3032 3032 3031 3031 3030 3030 3029 3029 3029 3029 3028 3028 3028 3027 3027 3026 3026 3026 3025 3025 3024 3024 3023 3023 3022 3021 3021 3020 3020 3020 3019 3019 3019 3019 3019 3018 3018 3018 3018 3018 3017 3017 3017 3016 3016 3016 3016
3036 3035 3035 3035 3034 3034 3034 3033 3033 3032 3032 3032 3032 3032 3032 3032 3032 3032 3032 3032 3032 3032 3031 3031 3031 3030 3030 3030 3030 3030 3030 3030 3030 3030 3029 3029 3029 3029 3029 3029 3029 3028 3028 3027 3027 3026 3026 3025 3025 3025 3024 3024 3024 3023 3023 3022 3022 3021 3021 3020 3020 3019 3019 3018 3018 3017 3017 3016 3016 3016 3015 3015 3015 3015 3014 3014 3014 3014 3014 3014 3013 3013 3013 3013 3013 3013
3034 3034 3033 3033 3032 3032 3031 3031 3031 3031 3030 3030 3030 3031 3030 3030 3030 3030 3030 3030 3030 3029 3029 3029 3029 3029 3028 3028 3028 3028 3028 3028 3027 3027 3027 3027 3027 3027 3026 3026 3026 3025 3024 3024 3023 3023 3022 3022 3022 3021 3021 3020 3020 3020 3019 3019 3018 3018 3017 3016 3016 3015 3015 3014 3014 3014 3013 3013 3013 3013 3012 3012 3012 3012 3011 3011 3011 3011 3011 3010 3010 3010 3010 3009 3009 3009
3032 3031 3031 3030 3030 3030 3029 3029 3029 3029 3029 3029 3029 3029 3029 3029 3029 3029 3028 3028 3028 3027 3027 3027 3027 3026 3026 3026 3026 3025 3025 3025 3024 3024 3024 3024 3024 3024 3024 3023 3023 3022 3021 3021 3020 3019 3019 3019 3018 3018 3017 3017 3017 3016 3015 3015 3014 3014 3013 3013 3012 3012 3011 3011 3011 3011 3010 3010 3010 3010 3009 3009 3009 3009 3009 3009 3009 3008 3008 3008 3007 3007 3007 3006 3006 3006
3029 3029 3029 3029 3028 3028 3028 3028 3028 3028 3028 3028 3028 3028 3027 3027 3027 3026 3026 3026 3025 3025 3025 3025 3025 3024 3024 3024 3023 3023 3023 3022 3022 3021 3021 3021 3021 3021 3021 3020 3019 3019 3018 3018 3017 3016 3016 3015 3015 3014 3014 3014 3013 3012 3012 3011 3011 3010 3010 3009 3009 3009 3009 3009 3008 3008 3008 3008 3008 3008 3007 3007 3007 3007 3007 3006 3006 3006 3005 3005 3005 3004 3004 3004 3004 3004
3028 3028 3027 3027 3027 3027 3026 3026 3026 3026 3026 3026 3026 3026 3025 3025 3024 3024 3024 3024 3024 3023 3023 3023 3023 3022 3022 3021 3021 3020 3020 3019 3019 3019 3019 3019 3018 3018 3018 3017 3016 3016 3015 3014 3014 3013 3013 3012 3011 3011 3010 3010 3009 3009 3009 3008 3008 3007 3007 3007 3007 3007 3006 3006 3006 3006 3006 3006 3005 3005 3005 3005 3005 3005 3004 3004 3004 3004 3003 3003 3003 3002 3002 3002 3002 3001
3026 3026 3026 3025 3025 3025 3025 3025 3025 3025 3025 3025 3024 3024 3024 3023 3022 3022 3022 3022 3021 3021 3021 3021 3021 3020 3019 3019 3019 3018 3018 3017 3017 3016 3016 3016 3015 3015 3014 3014 3013 3012 3012 3011 3010 3010 3009 3009 3008 3008 3007 3007 3006 3006 3005 3005 3005 3005 3005 3004 3004 3004 3004 3004 3004 3004 3004 3004 3004 3004 3004 3004 3003 3003 3003 3003 3002 3002 3001 3001 3001 3000 3000 3000 2999 2999
3025 3024 3024 3024 3024 3024 3024 3023 3023 3023 3023 3023 3022 3022 3021 3021 3020 3020 3020 3019 3019 3019 3019 3019 3019 3018 3017 3017 3016 3015 3015 3014 3014 3014 3013 3013 3013 3012 3011 3011 3010 3009 3009 3008 3007 3006 3006 3005 3005 3004 3004 3004 3004 3003 3003 3003 3003 3003 3003 3003 3002 3002 3002 3002 3002 3002 3002 3002 3002 3002 3002 3002 3002 3001 3001 3001 3000 3000 2999 2999 2999 2999 2998 2998 2998 2997
3024 3024 3023 3023 3022 3022 3022 3022 3021 3021 3021 3021 3020 3019 3019 3019 3019 3019 3018 3018 3017 3017 3016 3016 3016 3015 3015 3014 3014 3013 3012 3011 3011 3011 3010 3010 3009 3009 3008 3007 3007 3006 3005 3004 3004 3003 3003 3002 3002 3002 3002 3001 3001 3001 3001 3001 3001 3001 3001 3001 3001 3001 3001 3001 3001 3001 3001 3001 3001 3000 3000 3000 3000 2999 2999 2999 2999 2998 2998 2997 2997 2997 2996 2996 2995 2995
3024 3023 3022 3022 3021 3021 3020 3020 3020 3019 3019 3019 3019 3018 3017 3017 3017 3016 3016 3015 3015 3014 3014 3014 3013 3013 3012 3011 3011 3010 3009 3009 3008 3008 3007 3006 3005 3005 3004 3004 3003 3003 3002 3001 3000 3000 3000 3000 3000 2999 2999 2999 2999 2999 2999 2999 2999 2999 2999 2999 2999 2999 2999 2999 2999 2999 2999 2999 2999 2999 2999 2998 2998 2998 2997 2997 2996 2996 2995 2995 2995 2994 2994 2994 2993 2993
3022 3022 3021 3021 3020 3019 3019 3019 3018 3018 3018 3017 3017 3016 3016 3015 3014 3014 3014 3013 3013 3012 3012 3011 3010 3010 3009 3008 3007 3007 3006 3005 3005 3005 3004 3003 3002 3001 3001 3000 3000 2999 2999 2998 2998 2998 2998 2998 2998 2997 2997 2997 2997 2997 2997 2997 2997 2997 2997 2997 2997 2998 2998 2998 2998 2997 2997 2997 2997 2997 2996 2996 2995 2995 2995 2994 2994 2994 2993 2993 2993 2992 2992 2991 2991 2990
3021 3020 3019 3019 3018 3018 3017 3017 3016 3016 3015 3015 3014 3014 3013 3012 3012 3011 3011 3010 3010 3009 3009 3009 3008 3007 3006 3005 3004 3003 3002 3002 3002 3002 3001 3000 2999 2998 2998 2998 2997 2997 2996 2996 2996 2996 2996 2996 2995 2995 2995 2995 2995 2995 2995 2995 2995 2995 2995 2996 2996 2996 2996 2995 2995 2995 2995 2995 2994 2994 2994 2994 2993 2993 2992 2992 2992 2991 2991 2991 2990 2990 2989 2989 2989 2988
3018 3018 3017 3016 3016 3015 3014 3014 3013 3013 3012 3011 3011 3010 3010 3009 3009 3008 3008 3008 3007 3006 3006 3005 3005 3004 3003 3002 3001 2999 2999 2999 2999 2999 2999 2997 2996 2995 2995 2995 2995 2994 2994 2994 2994 2994 2994 2994 2994 2994 2994 2994 2994 2994 2994 2994 2994 2994 2994 2994 2994 2994 2993 2993 2993 2993 2992 2992 2992 2991 2991 2991 2990 2990 2990 2989 2989 2989 2989 2988 2988 2988 2987 2987 2986 2986
3016 3015 3015 3014 3013 3012 3012 3011 3010 3010 3009 3009 3008 3007 3007 3007 3006 3006 3005 3005 3004 3004 3003 3003 3002 3002 3001 2999 2997 2996 2995 2996 2997 2997 2996 2994 2993 2993 2993 2993 2993 2992 2992 2992 2992 2992 2992 2992 2992 2992 2992 2992 2992 2992 2991 2991 2992 2992 2991 2991 2991 2991 2991 2990 2990 2990 2989 2989 2989 2988 2988 2988 2988 2987 2987 2987 2987 2986 2986 2986 2985 2985 2985 2984 2984 2983
3014 3014 3013 3012 3011 3010 3009 3009 3008 3008 3007 3006 3006 3005 3004 3004 3004 3003 3003 3002 3002 3001 3000 3000 2999 2999 2998 2997 2995 2993 2992 2993 2994 2994 2993 2992 2991 2991 2991 2991 2991 2991 2990 2990 2990 2990 2990 2990 2990 2990 2990 2990 2989 2989 2989 2989 2989 2989 2989 2989 2989 2988 2988 2987 2987 2987 2986 2986 2986 2985 2985 2985 2985 2984 2984 2984 2984 2984 2984 2983 2983 2983 2982 2982 2981 2981
3012 3012 3011 3010 3009 3008 3007 3007 3006 3006 3005 3004 3004 3003 3002 3002 3001 3001 3000 2999 2999 2998 2998 2997 2996 2996 2995 2994 2993 2991 2990 2990 2991 2991 2991 2990 2989 2989 2989 2989 2989 2989 2989 2989 2989 2989 2989 2988 2988 2988 2988 2988 2988 2988 2987 2987 2987 2987 2986 2986 2986 2985 2985 2984 2984 2984 2984 2984 2983 2983 2983 2982 2982 2982 2982 2981 2981 2981 2980 2980 2980 2979 2979 2979 2978 2978
3010 3009 3009 3008 3007 3006 3005 3005 3004 3004 3003 3002 3001 3001 3000 2999 2999 2998 2997 2997 2996 2995 2995 2994 2994 2993 2992 2991 2990 2989 2988 2989 2989 2989 2989 2988 2987 2987 2988 2988 2987 2987 2987 2987 2987 2987 2987 2986 2986 2986 2986 2986 2986 2985 2985 2985 2985 2984 2984 2984 2983 2983 2982 2982 2982 2982 2981 2981 2981 2980 2980 2979 2979 2979 2979 2978 2978 2978 2977 2977 2977 2977 2976 2976 2975 2975
3008 3007 3007 3006 3005 3004 3004 3003 3002 3001 3000 3000 2999 2998 2997 2997 2996 2995 2994 2994 2993 2993 2992 2991 2990 2990 2989 2989 2987 2986 2986 2986 2987 2986 2986 2986 2985 2985 2986 2986 2986 2985 2985 2985 2985 2985 2985 2985 2984 2984 2984 2984 2984 2984 2983 2983 2982 2982 2981 2981 2981 2980 2980 2980 2979 2979 2979 2979 2978 2978 2977 2977 2976 2976 2976 2975 2975 2974 2974 2974 2974 2974 2973 2973 2972 2972
3006 3005 3004 3004 3003 3002 3001 3000 2999 2999 2998 2997 2996 2995 2994 2994 2993 2992 2992 2991 2990 2989 2989 2988 2988 2987 2986 2986 2985 2984 2984 2984 2984 2984 2984 2984 2984 2984 2984 2984 2984 2984 2984 2984 2984 2984 2984 2983 2983 2983 2982 2982 2982 2981 2981 2981 2980 2980 2979 2979 2979 2978 2978 2978 2977 2977 2977 2976 2976 2975 2975 2974 2974 2973 2973 2973 2972 2972 2971 2971 2971 2971 2970 2970 2969 2969
3003 3002 3002 3001 3000 2999 2998 2998 2997 2996 2995 2994 2993 2993 2992 2991 2990 2990 2989 2989 2988 2987 2986 2985 2985 2984 2984 2983 2983 2982 2982 2983 2983 2983 2983 2983 2982 2982 2983 2983 2983 2982 2982 2982 2982 2982 2982 2981 2981 2980 2980 2980 2979 2979 2979 2979 2978 2978 2977 2977 2977 2976 2976 2975 2975 2975 2974 2974 2973 2973 2972 2972 2971 2971 2970 2970 2969 2969 2969 2968 2968 2968 2967 2967 2967 2966
3000 2999 2999 2998 2997 2996 2995 2995 2994 2993 2992 2991 2991 2990 2989 2989 2988 2987 2987 2986 2985 2984 2984 2983 2983 2982 2981 2981 2980 2980 2980 2981 2981 2981 2981 2981 2981 2980 2981 2981 2981 2981 2980 2980 2980 2980 2980 2979 2979 2979 2978 2978 2978 2978 2977 2977 2977 2976 2976 2975 2975 2974 2974 2974 2973 2973 2972 2971 2971 2970 2970 2969 2969 2968 2968 2967 2967 2966 2966 2965 2965 2965 2964 2964 2964 2964
2998 2997 2996 2995 2995 2994 2993 2992 2991 2991 2990 2989 2988 2988 2987 2986 2985 2985 2984 2983 2982 2982 2981 2981 2981 2980 2979 2979 2979 2979 2979 2979 2979 2979 2980 2980 2979 2979 2979 2979 2979 2979 2979 2979 2979 2979 2978 2978 2977 2977 2977 2976 2976 2976 2976 2975 2975 2974 2974 2973 2973 2972 2972 2971 2971 2970 2970 2969 2969 2968 2968 2967 2966 2966 2965 2965 2964 2964 2963 2963 2962 2962 2962 2961 2961 2961
2996 2995 2994 2993 2993 2992 2991 2990 2989 2988 2988 2987 2986 2985 2985 2984 2983 2983 2982 2981 2980 2979 2979 2979 2979 2978 2978 2977 2977 2977 2977 2978 2978 2978 2978 2979 2978 2978 2978 2978 2978 2978 2978 2978 2977 2977 2977 2976 2976 2975 2975 2975 2975 2975 2974 2974 2973 2973 2972 2971 2971 2970 2970 2969 2969 2968 2968 2967 2967 2966 2965 2965 2964 2964 2963 2962 2962 2961 2961 2960 2960 2959 2959 2959 2958 2958
2994 2993 2992 2992 2991 2990 2989 2988 2987 2986 2985 2985 2984 2983 2983 2982 2981 2981 2980 2979 2978 2978 2978 2977 2977 2976 2976 2976 2976 2975 2976 2976 2976 2977 2977 2977 2977 2977 2977 2977 2977 2977 2977 2976 2976 2976 2976 2975 2975 2974 2974 2974 2973 2973 2973 2972 2971 2971 2970 2970 2969 2969 2968 2968 2967 2966 2966 2965 2964 2964 2963 2963 2962 2961 2961 2960 2959 2959 2959 2958 2957 2957 2956 2956 2955 2955
2993 2992 2991 2990 2989 2988 2987 2986 2985 2984 2984 2983 2982 2981 2981 2980 2979 2979 2978 2977 2976 2976 2976 2976 2975 2975 2974 2974 2974 2974 2974 2974 2974 2975 2975 2976 2976 2976 2976 2975 2976 2976 2975 2975 2975 2975 2974 2974 2974 2973 2973 2972 2972 2971 2971 2970 2970 2969 2969 2968 2968 2967 2966 2966 2965 2964 2964 2963 2962 2962 2961 2960 2960 2959 2959 2958 2957 2957 2956 2955 2954 2954 2953 2953 2952 2952
2991 2990 2989 2988 2987 2986 2985 2984 2984 2983 2982 2981 2980 2979 2979 2978 2978 2977 2976 2975 2974 2974 2974 2974 2974 2973 2973 2973 2973 2973 2973 2973 2973 2973 2974 2974 2974 2974 2974 2974 2974 2974 2974 2974 2974 2973 2973 2973 2972 2972 2971 2971 2970 2970 2969 2969 2969 2968 2967 2967 2966 2965 2965 2964 2963 2963 2962 2961 2960 2959 2959 2958 2957 2957 2956 2955 2955 2954 2954 2953 2952 2951 2951 2950 2950 2949
2989 2988 2987 2986 2985 2984 2984 2983 2982 2981 2980 2979 2979 2978 2977 2976 2976 2975 2974 2973 2973 2973 2973 2972 2972 2972 2972 2972 2972 2972 2971 2971 2971 2971 2972 2972 2973 2973 2973 2973 2973 2972 2972 2972 2972 2972 2972 2971 2971 2970 2970 2969 2969 2969 2968 2968 2967 2967 2966 2965 2965 2964 2963 2963 2962 2961 2960 2959 2958 2958 2957 2956 2955 2954 2954 2953 2952 2951 2951 2950 2949 2949 2948 2947 2947 2947
2988 2987 2985 2984 2984 2983 2982 2981 2980 2979 2978 2977 2976 2976 2975 2974 2974 2973 2972 2972 2971 2971 2971 2971 2971 2971 2971 2971 2971 2971 2970 2969 2969 2969 2970 2970 2971 2971 2971 2971 2970 2970 2970 2970 2970 2970 2970 2970 2969 2969 2969 2968 2968 2968 2967 2967 2966 2965 2965 2964 2964 2963 2962 2961 2960 2959 2958 2957 2956 2955 2954 2954 2953 2952 2951 2950 2949 2949 2948 2948 2947 2946 2945 2945 2944 2944
2986 2985 2984 2983 2982 2981 2980 2979 2978 2977 2976 2975 2974 2974 2973 2973 2972 2971 2971 2970 2970 2970 2970 2969 2969 2969 2969 2970 2970 2969 2969 2968 2968 2968 2968 2969 2969 2969 2969 2969 2969 2968 2968 2968 2968 2969 2969 2969 2968 2968 2968 2967 2967 2966 2966 2965 2965 2964 2963 2963 2962 2961 2960 2959 2958 2957 2956 2955 2954 2954 2952 2951 2950 2949 2949 2948 2947 2946 2945 2945 2944 2943 2942 2942 2941 2941
2985 2984 2983 2982 2980 2979 2979 2977 2976 2975 2974 2973 2973 2972 2971 2971 2970 2970 2969 2969 2969 2969 2968 2968 2968 2968 2968 2968 2968 2968 2967 2967 2966 2966 2966 2967 2967 2967 2967 2967 2967 2966 2966 2966 2966 2966 2967 2967 2967 2967 2967 2966 2966 2965 2965 2964 2963 2963 2962 2961 2960 2960 2959 2958 2957 2955 2954 2954 2953 2951 2950 2949 2948 2947 2946 2945 2944 2944 2943 2942 2941 2940 2939 2939 2938 2938
2983 2982 2981 2980 2979 2978 2977 2976 2975 2974 2973 2972 2971 2970 2969 2969 2969 2968 2968 2967 2967 2967 2967 2967 2967 2967 2966 2967 2966 2966 2966 2965 2964 2964 2964 2965 2965 2965 2965 2965 2965 2964 2964 2964 2964 2964 2964 2965 2965 2965 2965 2965 2965 2964 2964 2963 2962 2961 2960 2959 2959 2958 2957 2956 2955 2954 2953 2951 2950 2949 2948 2947 2945 2944 2944 2943 2942 2941 2940 2939 2939 2938 2937 2936 2935 2935
2981 2980 2979 2978 2977 2976 2975 2974 2973 2972 2971 2970 2969 2968 2968 2967 2967 2966 2966 2966 2965 2965 2965 2965 2965 2965 2965 2965 2965 2964 2964 2963 2963 2963 2963 2963 2963 2963 2963 2963 2963 2963 2962 2962 2963 2963 2963 2963 2963 2963 2963 2964 2964 2963 2962 2961 2960 2959 2959 2958 2957 2956 2955 2954 2953 2951 2950 2949 2948 2947 2945 2944 2943 2942 2941 2940 2939 2938 2938 2937 2936 2935 2934 2933 2932 2932
2979 2978 2977 2976 2975 2974 2973 2972 2971 2970 2969 2968 2967 2966 2966 2965 2965 2964 2964 2964 2964 2964 2964 2963 2963 2963 2963 2963 2963 2963 2962 2961 2961 2961 2961 2961 2961 2961 2961 2961 2961 2961 2960 2960 2960 2960 2960 2960 2960 2961 2961 2961 2961 2961 2960 2959 2959 2958 2957 2956 2955 2954 2953 2951 2950 2949 2948 2947 2946 2944 2943 2942 2940 2939 2938 2938 2937 2936 2935 2934 2933 2932 2931 2931 2930 2929
2978 2977 2975 2974 2973 2972 2971 2970 2969 2968 2967 2966 2965 2964 2964 2964 2963 2963 2963 2962 2962 2962 2962 2962 2962 2961 2961 2961 2961 2961 2960 2960 2959 2959 2959 2959 2959 2959 2959 2959 2959 2959 2959 2958 2958 2958 2958 2958 2958 2958 2958 2958 2958 2958 2958 2958 2957 2956 2955 2954 2953 2952 2950 2949 2948 2946 2945 2944 2943 2942 2940 2939 2938 2937 2936 2935 2934 2934 2933 2932 2931 2930 2929 2928 2928 2927
2976 2975 2974 2972 2971 2970 2969 2968 2967 2966 2965 2964 2964 2963 2962 2962 2961 2961 2961 2960 2960 2960 2960 2960 2960 2960 2959 2959 2959 2959 2958 2958 2958 2957 2957 2957 2957 2957 2957 2957 2957 2957 2956 2956 2956 2955 2955 2955 2955 2955 2955 2955 2955 2954 2954 2954 2954 2954 2953 2952 2950 2949 2948 2946 2945 2944 2943 2941 2940 2939 2938 2936 2935 2934 2934 2933 2932 2931 2930 2929 2929 2928 2927 2926 2925 2924
2974 2973 2972 2970 2969 2968 2967 2966 2965 2964 2963 2962 2962 2961 2960 2960 2959 2959 2959 2959 2959 2959 2958 2958 2958 2958 2958 2957 2957 2957 2957 2956 2956 2955 2955 2955 2955 2955 2955 2955 2955 2955 2954 2954 2954 2953 2953 2953 2952 2952 2952 2952 2951 2951 2951 2951 2950 2950 2949 2949 2948 2947 2945 2944 2943 2941 2940 2939 2938 2936 2935 2934 2933 2932 2931 2930 2929 2929 2928 2927 2926 2925 2924 2924 2923 2922
2972 2971 2969 2969 2967 2966 2965 2964 2964 2962 2962 2961 2960 2959 2959 2958 2958 2958 2957 2957 2957 2957 2957 2956 2956 2956 2956 2955 2955 2955 2954 2954 2954 2954 2954 2953 2953 2953 2953 2953 2953 2953 2952 2952 2951 2951 2950 2950 2949 2949 2949 2948 2948 2948 2948 2948 2947 2946 2945 2945 2944 2944 2943 2941 2940 2939 2937 2936 2935 2934 2932 2931 2930 2929 2929 2928 2927 2927 2926 2925 2924 2923 2922 2921 2921 2920
2970 2969 2968 2966 2965 2964 2964 2963 2962 2961 2960 2959 2958 2958 2957 2957 2956 2956 2956 2955 2955 2955 2955 2954 2954 2954 2954 2954 2953 2953 2953 2952 2952 2952 2952 2952 2951 2951 2951 2951 2951 2950 2950 2950 2949 2949 2948 2947 2947 2946 2946 2945 2944 2944 2944 2944 2944 2943 2942 2941 2940 2940 2939 2939 2937 2936 2934 2933 2932 2931 2930 2929 2928 2927 2926 2926 2925 2924 2923 2923 2922 2921 2920 2919 2918 2918
2968 2967 2965 2964 2964 2963 2961 2960 2959 2959 2958 2957 2957 2956 2955 2955 2954 2954 2954 2954 2954 2953 2953 2953 2953 2953 2952 2952 2952 2951 2951 2950 2950 2950 2950 2949 2949 2949 2949 2949 2949 2948 2948 2947 2947 2946 2945 2945 2944 2943 2943 2942 2941 2941 2941 2941 2941 2940 2939 2937 2936 2936 2936 2935 2934 2933 2932 2930 2929 2928 2927 2926 2925 2924 2924 2924 2923 2922 2921 2920 2919 2919 2918 2917 2916 2915
2966 2965 2964 2963 2962 2961 2959 2959 2958 2957 2956 2955 2955 2954 2954 2953 2953 2953 2952 2952 2952 2951 2951 2951 2951 2951 2950 2950 2950 2949 2949 2949 2948 2948 2948 2947 2947 2947 2947 2946 2946 2946 2945 2945 2944 2944 2943 2942 2941 2940 2940 2939 2939 2938 2938 2938 2937 2937 2935 2934 2933 2932 2932 2932 2931 2930 2929 2928 2927 2925 2924 2923 2922 2922 2921 2921 2920 2919 2919 2918 2917 2916 2915 2914 2913 2912
2964 2963 2962 2960 2959 2959 2958 2957 2956 2955 2954 2954 2953 2952 2952 2951 2951 2951 2950 2950 2950 2949 2949 2949 2949 2949 2949 2949 2948 2948 2947 2947 2946 2946 2946 2945 2945 2945 2944 2944 2944 2943 2943 2942 2941 2941 2940 2939 2939 2938 2937 2936 2936 2935 2935 2934 2934 2933 2932 2931 2930 2929 2929 2928 2928 2927 2926 2925 2924 2923 2921 2920 2919 2919 2919 2918 2918 2917 2916 2915 2914 2913 2913 2912 2911 2910
2962 2961 2959 2959 2958 2957 2956 2955 2954 2953 2952 2952 2951 2950 2950 2949 2949 2949 2949 2948 2948 2948 2948 2947 2947 2947 2947 2947 2946 2946 2945 2945 2945 2944 2944 2944 2943 2943 2942 2942 2941 2940 2940 2939 2939 2938 2937 2937 2936 2935 2935 2934 2933 2932 2932 2931 2931 2930 2929 2928 2927 2926 2925 2925 2924 2923 2922 2922 2921 2920 2919 2917 2917 2916 2916 2915 2915 2914 2913 2913 2912 2911 2910 2909 2908 2907
2960 2959 2958 2957 2956 2955 2954 2953 2952 2951 2950 2950 2949 2948 2948 2947 2947 2947 2947 2946 2946 2946 2946 2946 2945 2945 2945 2945 2945 2944 2944 2944 2943 2942 2942 2941 2941 2940 2940 2939 2939 2938 2937 2937 2936 2935 2935 2934 2933 2933 2932 2931 2930 2930 2929 2928 2927 2926 2926 2925 2924 2924 2923 2922 2921 2920 2919 2918 2918 2917 2916 2914 2914 2913 2913 2912 2912 2911 2911 2910 2909 2909 2908 2907 2906 2905
2958 2957 2956 2955 2954 2953 2952 2951 2950 2949 2949 2948 2947 2946 2946 2945 2945 2945 2944 2944 2944 2944 2944 2944 2944 2944 2943 2943 2943 2943 2942 2942 2941 2941 2940 2939 2939 2938 2938 2937 2936 2936 2935 2934 2933 2933 2932 2931 2930 2930 2929 2928 2928 2927 2926 2925 2924 2923 2922 2922 2921 2920 2920 2919 2918 2917 2916 2915 2914 2914 2913 2912 2911 2910 2909 2909 2909 2909 2908 2908 2907 2906 2906 2905 2904 2903
2956 2955 2954 2953 2952 2951 2950 2949 2948 2947 2947 2946 2945 2944 2944 2944 2943 2943 2942 2942 2942 2942 2942 2942 2942 2941 2941 2941 2941 2941 2940 2940 2939 2939 2938 2938 2937 2936 2935 2935 2934 2933 2932 2932 2931 2930 2929 2929 2928 2927 2926 2925 2925 2924 2924 2923 2922 2920 2919 2919 2918 2918 2917 2916 2915 2914 2914 2913 2912 2911 2910 2909 2908 2907 2906 2906 2906 2906 2905 2905 2905 2904 2903 2902 2901 2900
2955 2954 2953 2951 2950 2949 2948 2947 2946 2945 2945 2944 2943 2943 2942 2941 2941 2941 2940 2940 2940 2940 2940 2939 2939 2939 2939 2939 2939 2938 2938 2938 2937 2937 2936 2935 2935 2934 2934 2933 2932 2931 2930 2929 2929 2928 2927 2926 2925 2925 2924 2923 2922 2921 2920 2920 2919 2918 2917 2916 2915 2914 2914 2913 2913 2912 2911 2910 2909 2908 2907 2906 2905 2904 2903 2903 2902 2902 2902 2902 2902 2901 2900 2899 2898 2897
2953 2952 2951 2950 2949 2948 2947 2945 2945 2944 2943 2942 2942 2941 2940 2939 2939 2939 2938 2938 2938 2938 2938 2937 2937 2937 2937 2937 2936 2936 2936 2935 2935 2934 2934 2933 2933 2932 2931 2930 2929 2929 2928 2927 2926 2925 2924 2924 2923 2923 2922 2921 2919 2919 2918 2917 2916 2916 2915 2914 2913 2912 2911 2910 2909 2909 2908 2907 2906 2905 2904 2903 2902 2901 2900 2899 2899 2899 2899 2899 2899 2898 2898 2896 2895 2894
2951 2950 2949 2948 2947 2946 2945 2944 2943 2942 2941 2940 2940 2939 2939 2938 2937 2937 2936 2936 2936 2935 2935 2935 2935 2935 2935 2934 2934 2934 2933 2933 2932 2932 2931 2930 2930 2929 2928 2927 2927 2926 2925 2924 2923 2923 2922 2921 2921 2921 2920 2919 2917 2915 2914 2914 2913 2913 2912 2911 2910 2909 2908 2907 2906 2905 2904 2904 2903 2902 2901 2900 2899 2898 2897 2896 2895 2895 2895 2895 2895 2895 2894 2893 2892 2891